Location: ????????
(55.6189°N, 38.3031°E)
Time: 10:27:44
(UTC+00:00)

Cosmos 2333 Rocket - Pass Details

Date: 15 November 2019
Orbit: 837 x 865 km, 70.8° (Epoch: 16 December)

Event Time Altitude Azimuth Distance (km) Brightness Sun altitude
Exits shadow 00:49:05 19° 3° (N) 1,976 4.3 -34.9°
Maximum altitude 00:49:38 19° 10° (N) 1,964 4.3 -34.8°
Drops below altitude 10° 00:53:38 10° 54° (NE) 2,516 5.4 -34.3°
Sets 00:56:54 0° 72° (ENE) 3,453 6.5 -33.8°
